Location: Helsinki
(60.1699°N, 24.9384°E)
Time: 23:17:08
(UTC+02:00)

Altair - Pass Details

Date: 01 November 2020
Orbit: 1502 x 1682 km, 47.2° (Epoch: 25 November)

Event Time Altitude Azimuth Distance (km) Brightness Sun altitude
Rises 04:16:34 0° 205° (SSW) 4,640 - -25.8°
Exits shadow 04:19:55 - 194° (SSW) 3,773 9.3 -25.4°
Reaches altitude 10° 04:20:20 10° 192° (SSW) 3,675 9.2 -25.3°
Maximum altitude 04:27:04 23° 145° (SE) 2,820 9.1 -24.5°
Drops below altitude 10° 04:33:55 10° 98° (E) 3,770 10.5 -23.7°
Sets 04:37:50 0° 85° (E) 4,788 11.5 -23.2°
